Regional Weather Roundup
Issued by NWS Charleston, SC

Current Version | Previous Version | Graphics & Text | Print | Product List | Glossary On
Versions: 1 2 3 4 5 6 7 8 9 10 11 12 13 14 15 16 17 18 19 20 21 22 23 24 25 26 27 28 29 30 31 32 33 34 35 36 37 38 39 40 41 42 43 44 45 46 47 48 49 50
000
ASUS42 KCHS 250628
RWRCHS

REGIONAL WEATHER ROUNDUP
NATIONAL WEATHER SERVICE CHARLESTON SC
200 AM EDT MON JUL 25 2016

NOTE: "FAIR" INDICATES FEW OR NO CLOUDS BELOW 12,000 FEET WITH NO
SIGNIFICANT WEATHER AND/OR OBSTRUCTIONS TO VISIBILITY.

NOT ALL STATIONS ARE QUALITY CONTROLLED. USE DATA WITH CAUTION...
ESPECIALLY DEWPOINT OBSERVATIONS.

SCZ027-030-031-034>040-042>050-250700-
...SOUTHEAST SOUTH CAROLINA...

CITY           SKY/WX    TMP DP  RH WIND       PRES   REMARKS
N CHARLESTON   PTCLDY    79  75  87 S5        30.05F
6HR MIN TEMP:  79; 6HR MAX TEMP:  85;

WATERFRONT PRK   N/A     83  78  84 SW7       30.04S HX  93
MOUNT PLEASANT FAIR      81  77  89 CALM      30.05F
JOHNS ISLAND   MOCLDY    82  75  78 S8        30.05F
PINOPOLIS        N/A     79  75  89 VRB3      29.98F
MONCKS CORNER  FAIR      73  72  94 CALM      30.05S
SUMMERVILLE    NOT AVBL
BEAUFORT MCAS  CLEAR     81  74  79 SW5       30.06S
6HR MIN TEMP:  81; 6HR MAX TEMP:  87;

BEAUFORT ARPT  FAIR      82  73  74 S3        30.05S
HILTON HEAD IS PTCLDY    84  75  74 S8        30.06F HX  92
WALTERBORO     CLEAR     79  79 100 S3        30.06S
ALLENDALE      FAIR      79  75  89 CALM      30.04F

...SOUTHERN MIDLANDS AND PEE DEE...

CITY           SKY/WX    TMP DP  RH WIND       PRES   REMARKS
GEORGETOWN     FAIR      75  73  94 CALM      30.06S
KINGSTREE      FAIR      75  73  94 CALM      30.05S
ORANGEBURG     CLEAR     78  75  90 S3        30.06S
6HR MIN TEMP:  78; 6HR MAX TEMP:  88;

BARNWELL       NOT AVBL
AIKEN          FAIR      79  70  73 S6        30.08F
MANNING        FAIR      79  73  83 SW6       30.05S
COLUMBIA       CLEAR     82  73  74 S6        30.03F
6HR MIN TEMP:  82; 6HR MAX TEMP:  92;

SUMTER         CLEAR     80  74  84 S6        30.02F
6HR MIN TEMP:  80; 6HR MAX TEMP:  87;

FLORENCE       CLEAR     79  75  87 S6        30.05S
6HR MIN TEMP:  79; 6HR MAX TEMP:  88;

MYRTLE BEACH   CLEAR     81  70  69 SW5       30.07S
N MYRTLE BEACH CLEAR     82  77  84 SW8       30.05S HX  90
6HR MIN TEMP:  82; 6HR MAX TEMP:  85;


$$

GAZ063-065-086>088-099>101-113>116-118-119-134>141-150-250700-
...SOUTHEAST GEORGIA...

CITY           SKY/WX    TMP DP  RH WIND       PRES   REMARKS
SAVANNAH ARPT  PTCLDY    78  74  87 CALM      30.06F
6HR MIN TEMP:  78; 6HR MAX TEMP:  87;

HUNTER AAF     CLEAR     80  78  91 SW3       30.03F
6HR MIN TEMP:  80; 6HR MAX TEMP:  86;

FORT STEWART   PTCLDY    74  73  94 CALM      30.04S
6HR MIN TEMP:  74; 6HR MAX TEMP:  80;

STATESBORO     PTCLDY    79  75  89 S5        30.05F
SYLVANIA       NOT AVBL
CLAXTON        FAIR      74  74  99 CALM      30.05F

...CSRA...CENTRAL AND FAR SOUTHEAST GEORGIA...

CITY           SKY/WX    TMP DP  RH WIND       PRES   REMARKS
THOMSON        NOT AVBL
AUGUSTA-BUSH   MOCLDY    77  74  90 CALM      30.03F
6HR MIN TEMP:  76; 6HR MAX TEMP:  89;

AUGUSTA-DANIEL MOCLDY    83  70  64 S3        30.05F
SWAINSBORO     FAIR      77  72  83 CALM      30.06S
VIDALIA        CLEAR     77  72  83 S5        30.05F
EASTMAN        FAIR      79  64  59 SE5       30.06F
HAZLEHURST     FAIR      79  74  85 CALM      30.04F
ALMA           CLEAR     73  72  96 CALM      30.05F
6HR MIN TEMP:  73; 6HR MAX TEMP:  81;

WAYCROSS       CLEAR     76  75  96 CALM      30.04F
JESUP          FAIR      73  73 100 CALM      30.05F
BAXLEY         FAIR      75  75 100 CALM      30.04F
BRUNSWICK      CLEAR     79  75  89 S3        30.05F
SAINT SIMONS   CLEAR     83  72  69 S8        30.05F
6HR MIN TEMP:  83; 6HR MAX TEMP:  86;


$$

SCZ027-028-034-036>038-045-046-048>050-GAZ119-141-250700-
...LAKE AND SUPPLEMENTAL COASTAL OBSERVATIONS...

STATION/POSITION TIME  TEMP    WIND        PRES    WAVE   SWELL
                       AIR SEA DIR/SP/G            HT/PER HT/PER/DIR
                 (UTC) (F)     (DEG/KT/KT) (MB)    (FT/S) (FT/S/D)
WINYAH BAY       0500   82     230/  4     1017.0
LAKE MURRAY      0500   85     190/ 10/ 12 1016.6S
ACE BASIN NERRS  0500   83        CALM     1018.0S
FORT PULASKI     0600   84 88  180/  5/ 10 1017.9F
SAPELO ISLAND    0600   83     180/  9     1018.0S

$$

ANZ835-935-AMZ111-154-330-350-352-354-370-450-454-472-250700-
...C-MAN AND BUOY OBSERVATIONS...

STATION/POSITION TIME  TEMP    WIND        PRES    WAVE   SWELL
                       AIR SEA DIR/SP/G            HT/PER HT/PER/DIR
                 (UTC) (F)     (DEG/KT/KT) (MB)    (FT/S) (FT/S/D)
BUOY 41004       0550   85 86  200/ 14/ 16 1017.4S   2/ 8   2/120/ 8
BUOY 41008       0550   85 86  170/ 16/ 17 1017.5F   3/ 4   2/100/ 9
FOLLY BEACH CMAN 0600   84     210/ 15/ 17 1018.0F
CAPERS NEARSHORE 0608   84 83  230/ 14/ 17 1017.6F
FRIPP NEARSHORE  0608   85 86  210/ 16/ 19 1016.8F


STATION/POSITION TIME  TEMP    WIND        PRES    WAVE   SWELL
                       AIR SEA DIR/SP/G            HT/PER HT/PER/DIR
                 (UTC) (F)     (DEG/KT/KT) (MB)    (FT/S) (FT/S/D)
5E ST. MARYS GA  0601      86                N/A     3/ 4
FRYING PAN BUOY  0600   85 85  210/ 12/ 16 1017.5S
BUOY 41025       0550   85 85  240/ 14/ 16 1017.3F   3/ 4   2/120/ 8
CAPE LOOKOUT NC  0600   83     220/  9/ 13 1017.5F
BUOY 41002       0550   84 84  200/  8/ 10 1018.9F   2/ 8   2/ 90/ 8
BUOY 41010       0520   84 86  170/  4/  6 1018.4F
ST AUGUSTINE FL  0600   78 86  220/  3/  4 1018.9F


$$




USA.gov is the U.S. government's official web portal to all federal, state and local government web resources and services.